Time,TemperatureF,DewpointF,PressureIn,WindDirection,WindDirectionDegrees,WindSpeedMPH,WindSpeedGustMPH,Humidity,HourlyPrecipIn,Conditions,Clouds,dailyrainin,SoftwareType,DateUTC
2013-04-03 00:23:00,33.0,-99.9,30.18,North,10,16.0,18.0,-999,-99.99,,,-99.99,,2013-04-03 04:23:00,
2013-04-03 00:33:00,33.0,-99.9,30.18,North,10,16.0,18.0,-999,-99.99,,,-99.99,,2013-04-03 04:33:00,
2013-04-03 00:43:00,33.0,-99.9,30.18,North,10,13.0,18.0,-999,-99.99,,,-99.99,,2013-04-03 04:43:00,
2013-04-03 00:53:00,33.0,-99.9,30.18,North,10,13.0,18.0,-999,-99.99,,,-99.99,,2013-04-03 04:53:00,
2013-04-03 01:03:00,33.0,-99.9,30.18,North,10,13.0,18.0,-999,-99.99,,,-99.99,,2013-04-03 05:03:00,
2013-04-03 01:23:00,33.0,-99.9,30.18,NNW,340,8.0,9.0,-999,-99.99,,,-99.99,,2013-04-03 05:23:00,
2013-04-03 01:33:00,33.0,-99.9,30.18,NNW,340,8.0,9.0,-999,-99.99,,,-99.99,,2013-04-03 05:33:00,
2013-04-03 01:42:00,33.0,-99.9,30.18,NNW,330,7.0,16.0,-999,-99.99,,,-99.99,,2013-04-03 05:42:00,
2013-04-03 01:53:00,33.0,-99.9,30.18,NNW,330,7.0,16.0,-999,-99.99,,,-99.99,,2013-04-03 05:53:00,
2013-04-03 02:03:00,33.0,-99.9,30.18,NNW,330,7.0,16.0,-999,-99.99,,,-99.99,,2013-04-03 06:03:00,
2013-04-03 02:22:00,33.0,-99.9,30.19,North,350,20.0,22.0,-999,-99.99,,,-99.99,,2013-04-03 06:22:00,
2013-04-03 02:32:00,33.0,-99.9,30.19,North,350,20.0,22.0,-999,-99.99,,,-99.99,,2013-04-03 06:32:00,
2013-04-03 02:43:00,33.0,-99.9,30.19,North,350,20.0,22.0,-999,-99.99,,,-99.99,,2013-04-03 06:43:00,
2013-04-03 02:52:00,33.0,-99.9,30.19,North,350,20.0,22.0,-999,-99.99,,,-99.99,,2013-04-03 06:52:00,
2013-04-03 03:03:00,33.0,-99.9,30.19,NNW,340,18.0,22.0,-999,-99.99,,,-99.99,,2013-04-03 07:03:00,
2013-04-03 03:23:00,32.0,-99.9,30.19,North,350,17.0,22.0,-999,-99.99,,,-99.99,,2013-04-03 07:23:00,
2013-04-03 03:33:00,32.0,-99.9,30.19,North,350,16.0,18.0,-999,-99.99,,,-99.99,,2013-04-03 07:33:00,
2013-04-03 03:43:00,32.0,-99.9,30.19,NNW,340,15.0,23.0,-999,-99.99,,,-99.99,,2013-04-03 07:43:00,
2013-04-03 03:53:00,32.0,-99.9,30.19,NNW,340,15.0,23.0,-999,-99.99,,,-99.99,,2013-04-03 07:53:00,
2013-04-03 04:04:00,32.0,-99.9,30.19,NNW,340,15.0,23.0,-999,-99.99,,,-99.99,,2013-04-03 08:04:00,
2013-04-03 04:22:00,31.0,-99.9,30.19,NNW,330,18.0,23.0,-999,-99.99,,,-99.99,,2013-04-03 08:22:00,
2013-04-03 04:33:00,31.0,-99.9,30.20,NNW,330,20.0,23.0,-999,-99.99,,,-99.99,,2013-04-03 08:33:00,
2013-04-03 04:43:00,31.0,-99.9,30.20,NNW,330,20.0,23.0,-999,-99.99,,,-99.99,,2013-04-03 08:43:00,
2013-04-03 04:52:00,31.0,-99.9,30.20,NNW,330,20.0,23.0,-999,-99.99,,,-99.99,,2013-04-03 08:52:00,
2013-04-03 05:00:00,30.0,-99.9,30.21,NNW,340,20.0,24.0,-999,-99.99,,,-99.99,,2013-04-03 09:00:00,
2013-04-03 05:02:00,31.0,-99.9,30.20,NNW,330,20.0,23.0,-999,-99.99,,,-99.99,,2013-04-03 09:02:00,
2013-04-03 05:22:00,31.0,-99.9,30.21,NNW,330,21.0,26.0,-999,-99.99,,,-99.99,,2013-04-03 09:22:00,
2013-04-03 05:33:00,30.0,-99.9,30.21,NNW,340,20.0,24.0,-999,-99.99,,,-99.99,,2013-04-03 09:33:00,
2013-04-03 05:43:00,30.0,-99.9,30.21,NNW,340,20.0,24.0,-999,-99.99,,,-99.99,,2013-04-03 09:43:00,
2013-04-03 05:53:00,30.0,-99.9,30.21,NNW,340,20.0,24.0,-999,-99.99,,,-99.99,,2013-04-03 09:53:00,
2013-04-03 06:22:00,31.0,-99.9,30.23,NW,320,20.0,22.0,-999,-99.99,,,-99.99,,2013-04-03 10:22:00,
2013-04-03 06:33:00,31.0,-99.9,30.23,NW,320,20.0,22.0,-999,-99.99,,,-99.99,,2013-04-03 10:33:00,
2013-04-03 06:43:00,31.0,-99.9,30.23,NW,320,20.0,24.0,-999,-99.99,,,-99.99,,2013-04-03 10:43:00,
2013-04-03 06:53:00,31.0,-99.9,30.23,NW,320,20.0,24.0,-999,-99.99,,,-99.99,,2013-04-03 10:53:00,
2013-04-03 07:03:00,31.0,-99.9,30.23,NW,320,20.0,24.0,-999,-99.99,,,-99.99,,2013-04-03 11:03:00,
2013-04-03 07:23:00,31.0,-99.9,30.25,NW,310,16.0,23.0,-999,-99.99,,,-99.99,,2013-04-03 11:23:00,
2013-04-03 07:33:00,31.0,-99.9,30.25,NW,310,16.0,23.0,-999,-99.99,,,-99.99,,2013-04-03 11:33:00,
2013-04-03 07:43:00,31.0,-99.9,30.25,NW,320,16.0,23.0,-999,-99.99,,,-99.99,,2013-04-03 11:43:00,
2013-04-03 07:53:00,31.0,-99.9,30.25,NW,320,16.0,23.0,-999,-99.99,,,-99.99,,2013-04-03 11:53:00,
2013-04-03 08:02:00,31.0,-99.9,30.25,NW,320,16.0,23.0,-999,-99.99,,,-99.99,,2013-04-03 12:02:00,
2013-04-03 08:23:00,31.0,-99.9,30.26,NW,310,16.0,21.0,-999,-99.99,,,-99.99,,2013-04-03 12:23:00,
2013-04-03 08:33:00,31.0,-99.9,30.26,NW,310,16.0,21.0,-999,-99.99,,,-99.99,,2013-04-03 12:33:00,
2013-04-03 08:42:00,31.0,-99.9,30.26,NW,310,16.0,21.0,-999,-99.99,,,-99.99,,2013-04-03 12:42:00,
2013-04-03 08:53:00,31.0,-99.9,30.26,NW,310,17.0,22.0,-999,-99.99,,,-99.99,,2013-04-03 12:53:00,
2013-04-03 09:00:00,31.0,-99.9,30.27,NW,320,16.0,22.0,-999,-99.99,,,-99.99,,2013-04-03 13:00:00,
2013-04-03 09:03:00,31.0,-99.9,30.26,NW,310,17.0,22.0,-999,-99.99,,,-99.99,,2013-04-03 13:03:00,
2013-04-03 09:22:00,31.0,-99.9,30.27,NW,320,16.0,22.0,-999,-99.99,,,-99.99,,2013-04-03 13:22:00,
2013-04-03 09:32:00,31.0,-99.9,30.27,NW,320,16.0,22.0,-999,-99.99,,,-99.99,,2013-04-03 13:32:00,
2013-04-03 09:42:00,31.0,-99.9,30.27,NW,320,16.0,22.0,-999,-99.99,,,-99.99,,2013-04-03 13:42:00,
2013-04-03 09:52:00,31.0,-99.9,30.27,NW,320,16.0,22.0,-999,-99.99,,,-99.99,,2013-04-03 13:52:00,
2013-04-03 10:22:00,30.0,-99.9,30.27,NW,310,20.0,23.0,-999,-99.99,,,-99.99,,2013-04-03 14:22:00,
2013-04-03 10:32:00,30.0,-99.9,30.27,NW,310,20.0,23.0,-999,-99.99,,,-99.99,,2013-04-03 14:32:00,
2013-04-03 10:43:00,30.0,-99.9,30.29,NW,310,20.0,24.0,-999,-99.99,,,-99.99,,2013-04-03 14:43:00,
2013-04-03 10:53:00,30.0,-99.9,30.29,NW,310,20.0,24.0,-999,-99.99,,,-99.99,,2013-04-03 14:53:00,
2013-04-03 11:03:00,30.0,-99.9,30.29,NW,310,20.0,24.0,-999,-99.99,,,-99.99,,2013-04-03 15:03:00,
2013-04-03 11:13:00,30.0,-99.9,30.29,NW,310,20.0,24.0,-999,-99.99,,,-99.99,,2013-04-03 15:13:00,
2013-04-03 11:24:00,29.0,-99.9,30.31,NW,310,22.0,24.0,-999,-99.99,,,-99.99,,2013-04-03 15:24:00,
2013-04-03 11:33:00,29.0,-99.9,30.31,NW,310,22.0,24.0,-999,-99.99,,,-99.99,,2013-04-03 15:33:00,
2013-04-03 11:43:00,29.0,-99.9,30.33,NW,310,22.0,26.0,-999,-99.99,,,-99.99,,2013-04-03 15:43:00,
2013-04-03 11:54:00,29.0,-99.9,30.33,NW,310,22.0,26.0,-999,-99.99,,,-99.99,,2013-04-03 15:54:00,
2013-04-03 12:04:00,29.0,-99.9,30.33,NW,310,22.0,26.0,-999,-99.99,,,-99.99,,2013-04-03 16:04:00,
2013-04-03 12:13:00,29.0,-99.9,30.33,NW,310,22.0,26.0,-999,-99.99,,,-99.99,,2013-04-03 16:13:00,
2013-04-03 12:25:00,28.0,-99.9,30.33,NW,320,21.0,26.0,-999,-99.99,,,-99.99,,2013-04-03 16:25:00,
2013-04-03 12:33:00,28.0,-99.9,30.34,NW,320,22.0,26.0,-999,-99.99,,,-99.99,,2013-04-03 16:33:00,
2013-04-03 12:44:00,28.0,-99.9,30.34,NW,320,22.0,26.0,-999,-99.99,,,-99.99,,2013-04-03 16:44:00,
2013-04-03 12:53:00,29.0,-99.9,30.34,NW,320,20.0,26.0,-999,-99.99,,,-99.99,,2013-04-03 16:53:00,
2013-04-03 13:03:00,29.0,-99.9,30.34,NW,320,20.0,26.0,-999,-99.99,,,-99.99,,2013-04-03 17:03:00,
2013-04-03 13:14:00,29.0,-99.9,30.34,NW,320,24.0,29.0,-999,-99.99,,,-99.99,,2013-04-03 17:14:00,
2013-04-03 13:23:00,29.0,-99.9,30.34,NW,320,24.0,29.0,-999,-99.99,,,-99.99,,2013-04-03 17:23:00,
2013-04-03 13:35:00,29.0,-99.9,30.34,NW,320,24.0,29.0,-999,-99.99,,,-99.99,,2013-04-03 17:35:00,
2013-04-03 13:47:00,29.0,-99.9,30.34,NW,320,24.0,29.0,-999,-99.99,,,-99.99,,2013-04-03 17:47:00,
2013-04-03 13:54:00,29.0,-99.9,30.34,NW,320,24.0,29.0,-999,-99.99,,,-99.99,,2013-04-03 17:54:00,
2013-04-03 14:03:00,30.0,-99.9,30.35,NW,320,26.0,-999.0,-999,-99.99,,,-99.99,,2013-04-03 18:03:00,
2013-04-03 14:13:00,30.0,-99.9,30.35,NW,320,26.0,-999.0,-999,-99.99,,,-99.99,,2013-04-03 18:13:00,
2013-04-03 14:23:00,29.0,-99.9,30.36,NW,310,25.0,32.0,-999,-99.99,,,-99.99,,2013-04-03 18:23:00,
2013-04-03 14:35:00,29.0,-99.9,30.36,NW,310,26.0,30.0,-999,-99.99,,,-99.99,,2013-04-03 18:35:00,
2013-04-03 14:43:00,29.0,-99.9,30.36,NW,320,25.0,29.0,-999,-99.99,,,-99.99,,2013-04-03 18:43:00,
2013-04-03 14:52:00,29.0,-99.9,30.36,NW,320,25.0,29.0,-999,-99.99,,,-99.99,,2013-04-03 18:52:00,
2013-04-03 15:04:00,29.0,-99.9,30.37,NW,320,23.0,-999.0,-999,-99.99,,,-99.99,,2013-04-03 19:04:00,
2013-04-03 15:13:00,29.0,-99.9,30.37,NW,320,23.0,-999.0,-999,-99.99,,,-99.99,,2013-04-03 19:13:00,
2013-04-03 15:22:00,29.0,-99.9,30.38,NNW,330,22.0,25.0,-999,-99.99,,,-99.99,,2013-04-03 19:22:00,
2013-04-03 15:33:00,29.0,-99.9,30.38,NNW,330,22.0,25.0,-999,-99.99,,,-99.99,,2013-04-03 19:33:00,
2013-04-03 15:42:00,29.0,-99.9,30.38,NNW,330,22.0,25.0,-999,-99.99,,,-99.99,,2013-04-03 19:42:00,
2013-04-03 15:52:00,29.0,-99.9,30.39,NW,320,21.0,25.0,-999,-99.99,,,-99.99,,2013-04-03 19:52:00,
2013-04-03 16:03:00,29.0,-99.9,30.39,NW,320,21.0,25.0,-999,-99.99,,,-99.99,,2013-04-03 20:03:00,
2013-04-03 16:13:00,29.0,-99.9,30.39,NW,320,21.0,25.0,-999,-99.99,,,-99.99,,2013-04-03 20:13:00,
2013-04-03 16:23:00,30.0,-99.9,30.38,NW,320,17.0,22.0,-999,-99.99,,,-99.99,,2013-04-03 20:23:00,
2013-04-03 16:33:00,30.0,-99.9,30.38,NW,320,17.0,22.0,-999,-99.99,,,-99.99,,2013-04-03 20:33:00,
2013-04-03 16:42:00,30.0,-99.9,30.38,NW,320,17.0,22.0,-999,-99.99,,,-99.99,,2013-04-03 20:42:00,
2013-04-03 16:54:00,30.0,-99.9,30.38,NW,320,18.0,24.0,-999,-99.99,,,-99.99,,2013-04-03 20:54:00,
2013-04-03 17:03:00,30.0,-99.9,30.38,NW,320,18.0,24.0,-999,-99.99,,,-99.99,,2013-04-03 21:03:00,
2013-04-03 17:12:00,30.0,-99.9,30.38,NW,320,18.0,24.0,-999,-99.99,,,-99.99,,2013-04-03 21:12:00,
2013-04-03 17:22:00,30.0,-99.9,30.39,NW,310,17.0,21.0,-999,-99.99,,,-99.99,,2013-04-03 21:22:00,
2013-04-03 17:33:00,30.0,-99.9,30.39,NW,310,17.0,21.0,-999,-99.99,,,-99.99,,2013-04-03 21:33:00,
2013-04-03 17:42:00,30.0,-99.9,30.39,NW,310,17.0,21.0,-999,-99.99,,,-99.99,,2013-04-03 21:42:00,
2013-04-03 17:52:00,30.0,-99.9,30.39,NW,310,17.0,21.0,-999,-99.99,,,-99.99,,2013-04-03 21:52:00,
2013-04-03 18:02:00,30.0,-99.9,30.40,NW,310,15.0,22.0,-999,-99.99,,,-99.99,,2013-04-03 22:02:00,
2013-04-03 18:13:00,30.0,-99.9,30.40,NW,310,15.0,22.0,-999,-99.99,,,-99.99,,2013-04-03 22:13:00,
2013-04-03 18:23:00,31.0,-99.9,30.41,NW,310,15.0,17.0,-999,-99.99,,,-99.99,,2013-04-03 22:23:00,
2013-04-03 18:33:00,31.0,-99.9,30.41,NW,310,15.0,17.0,-999,-99.99,,,-99.99,,2013-04-03 22:33:00,
2013-04-03 18:42:00,31.0,-99.9,30.42,WNW,300,11.0,18.0,-999,-99.99,,,-99.99,,2013-04-03 22:42:00,
2013-04-03 18:53:00,31.0,-99.9,30.42,WNW,300,11.0,18.0,-999,-99.99,,,-99.99,,2013-04-03 22:53:00,
2013-04-03 19:02:00,31.0,-99.9,30.42,WNW,300,11.0,18.0,-999,-99.99,,,-99.99,,2013-04-03 23:02:00,
2013-04-03 19:12:00,31.0,-99.9,30.42,WNW,300,11.0,18.0,-999,-99.99,,,-99.99,,2013-04-03 23:12:00,
2013-04-03 19:22:00,31.0,-99.9,30.43,WNW,290,9.0,13.0,-999,-99.99,,,-99.99,,2013-04-03 23:22:00,
2013-04-03 19:33:00,31.0,-99.9,30.43,WNW,290,9.0,13.0,-999,-99.99,,,-99.99,,2013-04-03 23:33:00,
2013-04-03 19:43:00,31.0,-99.9,30.44,West,280,9.0,15.0,-999,-99.99,,,-99.99,,2013-04-03 23:43:00,
2013-04-03 19:55:00,31.0,-99.9,30.44,West,280,9.0,15.0,-999,-99.99,,,-99.99,,2013-04-03 23:55:00,
2013-04-03 20:03:00,31.0,-99.9,30.44,West,280,9.0,15.0,-999,-99.99,,,-99.99,,2013-04-04 00:03:00,
2013-04-03 20:12:00,31.0,-99.9,30.44,West,280,9.0,15.0,-999,-99.99,,,-99.99,,2013-04-04 00:12:00,
2013-04-03 20:22:00,31.0,-99.9,30.44,West,280,8.0,13.0,-999,-99.99,,,-99.99,,2013-04-04 00:22:00,
2013-04-03 20:33:00,31.0,-99.9,30.44,West,280,8.0,13.0,-999,-99.99,,,-99.99,,2013-04-04 00:33:00,
2013-04-03 20:43:00,31.0,-99.9,30.44,West,280,8.0,13.0,-999,-99.99,,,-99.99,,2013-04-04 00:43:00,
2013-04-03 20:53:00,31.0,-99.9,30.43,West,280,5.0,13.0,-999,-99.99,,,-99.99,,2013-04-04 00:53:00,
2013-04-03 21:02:00,31.0,-99.9,30.43,West,280,5.0,13.0,-999,-99.99,,,-99.99,,2013-04-04 01:02:00,
2013-04-03 21:12:00,31.0,-99.9,30.43,West,280,5.0,13.0,-999,-99.99,,,-99.99,,2013-04-04 01:12:00,
2013-04-03 21:22:00,30.0,-99.9,30.42,NW,310,3.0,5.0,-999,-99.99,,,-99.99,,2013-04-04 01:22:00,
2013-04-03 21:32:00,30.0,-99.9,30.42,NW,310,3.0,5.0,-999,-99.99,,,-99.99,,2013-04-04 01:32:00,
2013-04-03 21:43:00,30.0,-99.9,30.41,North,10,1.0,7.0,-999,-99.99,,,-99.99,,2013-04-04 01:43:00,
2013-04-03 21:53:00,30.0,-99.9,30.41,North,10,1.0,7.0,-999,-99.99,,,-99.99,,2013-04-04 01:53:00,
2013-04-03 22:00:00,30.0,-99.9,30.41,SSE,160,5.0,5.0,-999,-99.99,,,-99.99,,2013-04-04 02:00:00,
2013-04-03 22:02:00,30.0,-99.9,30.41,North,10,1.0,7.0,-999,-99.99,,,-99.99,,2013-04-04 02:02:00,
2013-04-03 22:12:00,30.0,-99.9,30.41,North,10,1.0,7.0,-999,-99.99,,,-99.99,,2013-04-04 02:12:00,
2013-04-03 22:22:00,30.0,-99.9,30.41,SSE,160,5.0,5.0,-999,-99.99,,,-99.99,,2013-04-04 02:22:00,
2013-04-03 22:32:00,30.0,-99.9,30.41,SSE,160,5.0,5.0,-999,-99.99,,,-99.99,,2013-04-04 02:32:00,
2013-04-03 22:42:00,30.0,-99.9,30.41,SSE,160,5.0,5.0,-999,-99.99,,,-99.99,,2013-04-04 02:42:00,
2013-04-03 22:53:00,30.0,-99.9,30.41,SSE,160,5.0,5.0,-999,-99.99,,,-99.99,,2013-04-04 02:53:00,
2013-04-03 23:12:00,29.0,-99.9,30.39,SSE,160,6.0,8.0,-999,-99.99,,,-99.99,,2013-04-04 03:12:00,
2013-04-03 23:23:00,28.0,-99.9,30.38,South,170,7.0,8.0,-999,-99.99,,,-99.99,,2013-04-04 03:23:00,
2013-04-03 23:34:00,28.0,-99.9,30.38,South,170,7.0,8.0,-999,-99.99,,,-99.99,,2013-04-04 03:34:00,
2013-04-03 23:45:00,28.0,-99.9,30.36,South,180,8.0,9.0,-999,-99.99,,,-99.99,,2013-04-04 03:45:00,
2013-04-03 23:54:00,28.0,-99.9,30.36,South,180,8.0,9.0,-999,-99.99,,,-99.99,,2013-04-04 03:54:00,